This is the latest recevied weather packets stored in our database for station/object KE6AFE. If no packets are shown the sender has not sent any weather packets the latest 10 day(s).
| Time | Temp. | Humidity | Pressure | Rain* | Wind** | Luminosity | Snow |
|---|---|---|---|---|---|---|---|
| 1777684546 | 21.67° C | 51% | 1013.8 hPa | 0 mm | - | - | - |
| 1777683936 | 22.22° C | 50% | 1013.8 hPa | 0 mm | - | - | - |
| 1777683326 | 22.78° C | 49% | 1013.8 hPa | 0 mm | - | - | - |
| 1777682716 | 23.33° C | 49% | 1013.9 hPa | 0 mm | - | - | - |
| 1777682106 | 23.33° C | 48% | 1013.8 hPa | 0 mm | - | - | - |
| 1777681496 | 23.89° C | 49% | 1013.8 hPa | 0 mm | - | - | - |
| 1777680886 | 23.89° C | 48% | 1013.9 hPa | 0 mm | - | - | - |
| 1777680276 | 24.44° C | 48% | 1013.9 hPa | 0 mm | - | - | - |
| 1777679666 | 24.44° C | 49% | 1013.9 hPa | 0 mm | - | - | - |
| 1777679056 | 24.44° C | 50% | 1014 hPa | 0 mm | - | - | - |
| 1777678446 | 24.44° C | 51% | 1014.2 hPa | 0 mm | - | - | - |
| 1777677836 | 24.44° C | 51% | 1014.2 hPa | 0 mm | - | - | - |
| 1777677226 | 24.44° C | 51% | 1014.3 hPa | 0 mm | - | - | - |
| 1777676616 | 24.44° C | 50% | 1014.3 hPa | 0 mm | - | - | - |
| 1777676006 | 23.89° C | 51% | 1014.4 hPa | 0 mm | - | - | - |
| 1777675396 | 23.89° C | 51% | 1014.6 hPa | 0 mm | - | - | - |
| 1777674786 | 23.89° C | 51% | 1014.8 hPa | 0 mm | - | - | - |
| 1777674177 | 23.89° C | 52% | 1014.9 hPa | 0 mm | - | - | - |
| 1777673566 | 23.33° C | 52% | 1015.1 hPa | 0 mm | - | - | - |
| 1777672956 | 23.33° C | 53% | 1015.1 hPa | 0 mm | - | - | - |
| 1777672346 | 23.33° C | 54% | 1015.2 hPa | 0 mm | - | - | - |
| 1777671736 | 23.33° C | 54% | 1015.2 hPa | 0 mm | - | - | - |
| 1777671126 | 22.78° C | 56% | 1015.3 hPa | 0 mm | - | - | - |
| 1777670516 | 22.22° C | 57% | 1015.3 hPa | 0 mm | - | - | - |
| 1777669906 | 21.67° C | 58% | 1015.4 hPa | 0 mm | - | - | - |
* Rain latest hour (hover to see other rain measurements)
** Current wind speed in m/s (hover to see current wind gust speed)